Location: Sternwarte_Laufen
(47.9344°N, 12.9346°E)
Time: 19:34:19
(UTC+02:00)

ISS - Visible Passes

Search period start: 22 May 2018 00:00
Search period end: 01 June 2018 00:00
Orbit: 402 x 407 km, 51.6° (Epoch: 23 May)

Date Brightness Start Highest point End Pass type
(mag) Time Alt. Az. Time Alt. Az. Time Alt. Az.
22 May -2.6 01:30:19 10° WNW 01:33:28 42° N 01:36:37 10° E visible
22 May -4.0 03:06:52 10° WNW 03:10:09 82° SSW 03:13:25 10° ESE visible
22 May -2.7 21:25:29 10° SSW 21:28:11 24° SE 21:30:54 10° E visible
22 May -3.7 23:01:09 10° WSW 23:04:26 75° NNW 23:07:43 10° ENE visible
23 May -2.5 00:38:04 10° WNW 00:41:12 41° N 00:44:19 10° ENE visible
23 May -3.6 02:14:42 10° WNW 02:17:59 69° NNE 02:21:14 10° ESE visible
23 May -2.9 03:51:28 10° W 03:54:16 26° SW 03:57:04 10° SSE visible
23 May -3.9 22:09:00 10° WSW 22:12:16 75° SSE 22:15:33 10° ENE visible
23 May -2.6 23:45:46 10° W 23:48:55 43° N 23:52:05 10° ENE visible
24 May -3.1 01:22:32 10° WNW 01:25:45 52° NNE 01:27:56 18° E visible
24 May -2.1 02:59:06 10° WNW 03:00:21 20° W 03:00:21 20° W visible
24 May -2.9 22:53:26 10° W 22:56:39 51° NNW 22:59:51 10° ENE visible
25 May -2.7 00:30:19 10° WNW 00:33:29 44° N 00:35:45 17° ENE visible
25 May -2.2 02:06:52 10° WNW 02:08:20 24° WNW 02:08:20 24° WNW visible
25 May -3.4 22:01:07 10° WSW 22:04:23 66° NNW 22:07:39 10° ENE visible
25 May -2.5 23:38:03 10° WNW 23:41:11 41° N 23:44:19 10° ENE visible
26 May -3.3 01:14:39 10° WNW 01:17:17 53° NW 01:17:17 53° NW visible
26 May -2.5 22:45:43 10° WNW 22:48:51 42° N 22:52:00 10° ENE visible
27 May -3.3 00:22:27 10° WNW 00:25:41 57° NNE 00:26:28 42° ENE visible
27 May -1.0 01:59:03 10° WNW 01:59:05 10° WNW 01:59:05 10° WNW visible
27 May -2.7 21:53:21 10° W 21:56:33 47° N 21:59:44 10° ENE visible
27 May -2.8 23:30:12 10° WNW 23:33:23 46° N 23:35:45 16° E visible
28 May -2.2 01:06:44 10° WNW 01:08:22 26° W 01:08:22 26° W visible
28 May -2.6 22:37:54 10° WNW 22:41:03 42° N 22:44:11 10° ENE visible
29 May -3.9 00:14:28 10° WNW 00:17:42 87° NW 00:17:42 87° NW visible
29 May -2.5 21:45:33 10° WNW 21:48:41 41° N 21:51:49 10° ENE visible
29 May -3.5 23:22:14 10° WNW 23:25:30 64° NNE 23:27:05 27° E visible
30 May -1.5 00:58:54 10° W 00:59:43 15° W 00:59:43 15° W visible
30 May -3.0 22:29:58 10° WNW 22:33:10 49° N 22:36:22 10° E visible
31 May -3.2 00:06:30 10° WNW 00:09:07 43° WSW 00:09:07 43° WSW visible
31 May -2.7 21:37:39 10° WNW 21:40:48 43° N 21:43:57 10° E visible
31 May -4.0 23:14:11 10° WNW 23:17:28 79° SSW 23:18:32 39° SE visible
